Wind_Speed
55 53 55 61 61 54 51 55 57 50 43 37 28 23 22 19 17 16 17 19 19 22 26 29 31 29 31 33 34 36 38 40 41 38 40 42 44 47 51 56 57 57 54
53 52 56 61 55 56 56 61 59 48 41 35 25 20 17 18 19 18 17 19 20 23 27 30 31 31 33 35 37 38 39 41 38 37 41 43 44 48 54 56 57 55 49
55 55 58 58 53 58 61 63 57 45 38 26 22 20 18 18 17 17 18 20 22 26 29 32 31 33 35 38 39 39 41 40 37 38 42 46 48 51 52 55 52 49 47
54 59 56 57 56 62 67 64 51 34 28 24 22 19 19 19 19 18 19 21 24 27 29 31 32 34 38 38 38 40 41 38 37 40 45 48 49 50 53 52 47 46 45
60 59 59 61 62 68 73 59 40 35 27 24 20 20 20 19 18 17 19 23 26 28 30 32 33 36 37 37 40 40 37 36 38 43 47 47 48 50 52 52 46 42 44
56 56 60 71 75 73 68 53 37 28 24 20 21 20 19 18 17 18 21 24 26 28 30 31 34 36 37 39 39 37 37 37 41 44 44 45 47 49 50 49 43 39 41
61 52 55 84 78 58 59 42 28 23 20 21 20 20 18 16 17 18 21 25 28 29 29 31 35 35 38 38 38 36 36 39 42 43 45 46 50 50 49 47 42 41 41
64 64 52 56 62 55 44 33 24 21 19 20 21 17 14 15 17 19 23 27 28 28 29 31 33 34 37 37 35 35 37 40 42 45 47 49 48 47 47 45 42 41 41
64 63 69 54 51 48 34 23 19 17 18 18 17 14 14 15 17 21 26 27 27 28 29 31 34 36 37 36 35 37 40 42 45 48 49 48 46 45 43 41 41 40 38
63 51 50 45 35 27 26 20 16 16 18 18 16 14 14 17 20 23 26 26 25 26 28 32 33 35 34 34 37 41 43 46 48 48 46 45 44 43 43 42 40 40 38
47 37 25 32 27 25 20 17 15 16 17 16 15 15 15 19 21 24 21 19 23 27 29 33 34 32 34 38 40 43 45 47 47 45 44 43 43 42 42 41 41 40 37
27 22 28 20 18 20 18 17 17 17 16 15 14 15 18 20 20 15 18 20 24 27 31 31 31 35 37 39 44 47 48 47 45 43 42 41 41 40 40 38 39 41 41
20 18 16 16 16 13 14 15 15 16 14 12 14 17 21 17 15 18 21 23 27 31 29 30 35 39 43 44 46 47 45 43 42 41 41 40 39 39 37 37 38 40 39
19 16 15 14 14 13 14 15 17 13 11 13 16 20 13 16 18 21 23 27 26 26 31 35 40 44 46 44 44 41 39 37 38 38 39 38 38 37 35 34 34 34 32
20 18 16 14 14 16 19 19 11 10 13 15 18 13 16 18 20 22 23 22 27 31 37 42 44 44 42 39 35 34 35 36 37 36 35 34 33 33 33 33 34 33 30
24 21 19 19 21 22 20 15 13 14 15 18 15 15 17 20 21 20 24 28 34 40 43 43 40 38 34 31 32 33 34 35 34 33 32 31 31 31 32 32 32 31 27
26 25 26 27 24 21 19 16 13 15 21 17 15 18 17 15 19 24 30 36 41 43 42 40 34 30 29 29 31 32 33 33 32 30 30 30 30 31 30 29 29 27 27
27 25 20 17 16 16 17 15 17 13 8 13 15 14 16 21 26 31 37 43 45 42 36 31 28 29 30 30 31 32 31 30 28 28 28 29 30 30 28 28 26 25 25
20 19 19 16 15 11 15 10 4 5 9 12 12 16 20 25 31 36 39 40 36 33 31 29 30 30 31 31 31 31 30 28 27 26 28 29 29 28 28 28 27 26 25
20 21 17 17 18 10 4 2 3 7 8 10 15 21 25 30 36 39 35 33 34 35 32 30 28 29 29 29 29 29 28 27 27 28 29 29 28 28 29 28 27 26 23
17 13 5 12 7 6 5 5 4 6 10 15 20 25 31 36 40 33 31 33 34 32 29 28 28 29 28 28 29 28 26 27 28 29 28 28 29 30 30 30 28 27 25
22 9 11 8 7 8 5 3 6 11 17 22 26 31 35 37 31 29 31 33 31 28 27 25 25 26 26 27 27 26 28 29 28 27 29 30 31 32 32 31 30 27 25
15 13 6 8 7 4 3 6 13 18 22 26 31 35 34 29 28 29 30 30 28 26 25 24 24 24 25 24 26 28 28 27 26 28 30 31 33 33 33 32 30 27 25
10 12 12 8 4 4 7 12 16 20 25 29 31 30 27 27 26 28 30 30 28 25 24 23 24 24 24 26 27 27 26 26 28 30 31 33 34 35 35 32 30 27 23
16 11 7 2 3 6 12 16 20 24 27 28 28 24 21 24 27 28 29 27 26 25 24 24 24 26 26 27 28 28 27 28 30 32 33 34 36 37 34 33 32 28 22
7 4 1 3 7 11 14 17 21 25 26 23 20 21 25 27 28 28 28 28 26 25 26 26 26 26 28 29 28 27 29 30 31 33 34 36 37 36 36 33 31 31 24
Wind_Direction
209 213 215 220 217 223 232 232 234 236 243 252 260 266 265 270 272 279 293 306 299 303 304 306 311 311 310 312 314 316 319 319 316 312 316 317 318 323 328 331 331 329 325
203 207 212 219 220 219 226 232 232 234 239 249 257 258 263 263 270 282 294 294 296 298 299 305 310 310 311 315 316 318 318 317 314 311 316 319 322 328 331 331 328 327 325
202 204 211 216 220 218 223 227 228 223 234 243 248 251 253 260 270 286 291 292 297 296 301 307 308 309 312 315 317 318 318 317 313 313 317 321 325 329 332 328 325 325 328
205 206 209 216 216 215 220 218 213 213 225 237 241 247 254 261 274 284 286 291 292 297 300 304 305 309 314 315 317 317 318 315 313 318 322 326 328 331 330 327 323 324 327
203 207 210 215 214 213 221 212 197 210 223 231 239 247 257 264 272 277 284 286 293 297 301 301 307 314 314 317 319 319 317 315 316 320 325 327 329 330 327 325 322 324 325
208 208 214 217 215 197 219 205 187 193 219 229 238 250 255 256 265 275 282 289 292 297 300 302 309 312 316 319 320 318 316 315 317 322 326 327 329 330 326 324 324 328 322
205 200 224 227 203 184 188 180 166 190 212 227 239 242 246 254 269 281 286 289 293 296 299 306 311 315 318 320 319 316 316 318 323 326 328 329 328 328 325 327 328 328 323
196 200 181 205 178 177 187 158 170 198 214 227 233 234 244 262 274 283 288 291 295 297 306 311 312 316 320 321 318 318 320 322 324 326 327 326 326 325 326 327 329 331 330
195 202 213 214 183 172 154 148 183 205 224 227 229 238 252 268 281 289 292 293 296 306 309 308 313 318 321 318 318 320 321 322 325 324 323 322 323 324 325 327 329 330 330
198 211 203 173 166 157 143 163 193 216 220 226 232 243 261 276 290 294 293 298 305 305 305 312 315 317 318 320 322 323 323 323 324 320 319 322 322 322 325 328 329 331 331
160 160 172 159 158 146 152 180 202 212 221 230 241 256 275 286 298 300 302 302 304 306 312 317 319 320 320 321 321 321 321 319 317 316 318 320 320 322 325 328 330 332 337
144 148 157 151 141 148 169 189 198 213 225 239 253 275 297 306 302 302 302 305 307 313 319 320 319 319 320 321 321 320 317 316 316 318 319 319 320 321 323 327 332 337 341
160 168 159 157 161 173 181 192 203 219 239 266 286 308 311 305 305 307 311 313 318 319 319 320 320 322 322 319 318 318 316 318 319 321 320 322 322 322 325 331 335 339 341
171 171 169 172 176 178 180 199 223 237 269 293 308 316 300 304 310 317 320 320 321 321 321 321 321 321 319 317 315 317 319 321 322 323 323 324 326 328 329 331 333 338 340
174 176 176 172 174 187 200 218 241 269 286 301 304 289 302 312 318 320 321 323 324 323 322 321 320 318 316 315 318 320 323 325 326 326 327 328 330 330 332 333 335 339 340
176 172 173 182 196 208 220 233 250 267 279 291 283 297 310 317 320 325 325 325 324 323 323 320 317 317 318 320 323 327 328 329 329 329 329 330 333 333 334 336 340 342 341
167 177 186 196 207 214 220 236 250 269 287 279 296 308 317 324 328 325 324 323 324 324 321 319 317 319 320 323 326 327 327 328 328 331 333 333 334 336 337 341 344 348 345
179 187 196 208 218 232 233 239 270 276 277 298 301 313 320 318 318 322 327 328 325 321 317 319 319 318 319 321 323 326 329 329 330 331 332 333 335 338 339 343 347 351 352
182 189 199 215 233 227 225 235 245 286 294 295 302 310 313 318 324 330 329 324 322 323 321 317 317 320 320 320 322 327 329 328 329 331 332 334 335 337 339 343 346 351 353
186 197 211 230 213 257 197 188 267 267 279 301 310 313 321 330 332 330 329 328 328 325 321 318 317 315 318 322 327 329 329 329 331 332 333 334 334 336 339 340 344 346 349
191 203 160 199 158 171 211 219 235 284 306 313 320 331 342 339 334 332 332 329 328 328 326 323 319 318 321 325 328 329 329 329 331 332 333 334 335 336 337 338 340 341 344
187 193 165 161 134 152 163 247 301 324 334 338 341 346 341 336 334 333 333 335 335 336 335 331 328 327 326 328 328 328 329 330 332 334 334 334 334 334 333 333 332 332 332
244 197 148 151 155 175 257 316 336 344 345 344 345 342 338 333 334 336 338 339 335 335 335 334 329 329 328 327 327 328 329 330 332 332 333 333 331 330 330 329 327 325 321
158 158 156 160 207 286 337 342 343 343 345 345 341 337 335 335 337 340 340 338 336 332 332 332 328 331 328 327 327 328 330 330 332 333 333 332 332 331 331 329 326 323 318
148 158 176 214 354 356 349 342 343 346 346 341 337 331 333 341 339 335 333 331 331 332 331 330 326 325 325 326 327 327 328 329 330 332 333 333 333 331 330 328 325 321 315
153 147 104 13 356 350 345 345 345 341 338 335 330 334 337 332 328 327 326 326 326 324 322 320 320 323 323 324 326 326 326 328 330 332 332 333 332 330 328 327 324 321 314
Height
5720 5736 5746 5750 5760 5774 5780 5782 5786 5795 5803 5808 5810 5812 5813 5813 5814 5813 5811 5809 5807 5804 5802 5799 5795 5790 5785 5780 5775 5771 5765 5760 5753 5745 5739 5733 5726 5716 5705 5694 5684 5673 5661
5712 5724 5732 5741 5755 5767 5771 5770 5776 5789 5797 5801 5805 5805 5806 5807 5807 5807 5805 5803 5801 5799 5796 5792 5788 5783 5779 5774 5769 5763 5758 5753 5746 5740 5733 5724 5716 5706 5696 5685 5674 5663 5654
5702 5711 5721 5735 5747 5756 5758 5762 5770 5778 5789 5795 5797 5799 5800 5800 5800 5800 5799 5797 5794 5793 5789 5785 5781 5777 5772 5768 5762 5756 5750 5744 5739 5732 5725 5716 5706 5698 5687 5673 5664 5654 5645
5695 5703 5714 5724 5737 5745 5747 5753 5760 5767 5778 5787 5790 5794 5795 5794 5793 5793 5792 5791 5789 5785 5783 5779 5775 5770 5766 5761 5755 5749 5742 5736 5730 5724 5717 5708 5698 5688 5678 5671 5659 5647 5639
5684 5695 5703 5712 5723 5731 5737 5745 5746 5762 5775 5780 5784 5787 5789 5788 5786 5785 5785 5784 5783 5779 5775 5772 5767 5763 5758 5753 5747 5740 5734 5729 5723 5716 5708 5700 5691 5681 5672 5663 5653 5643 5632
5676 5688 5693 5690 5704 5708 5725 5734 5741 5757 5769 5774 5777 5781 5782 5781 5780 5778 5779 5779 5776 5772 5768 5764 5761 5756 5750 5744 5739 5733 5727 5722 5715 5708 5701 5692 5682 5674 5662 5652 5644 5637 5629
5669 5682 5682 5655 5684 5697 5707 5724 5739 5755 5762 5767 5773 5773 5773 5774 5773 5771 5772 5771 5769 5766 5761 5758 5753 5749 5743 5737 5731 5726 5720 5714 5708 5701 5692 5685 5676 5665 5655 5646 5636 5628 5619
5664 5670 5650 5656 5684 5695 5707 5724 5741 5752 5757 5762 5766 5766 5765 5765 5767 5765 5765 5765 5762 5758 5755 5750 5746 5740 5734 5729 5723 5717 5712 5706 5699 5691 5683 5675 5665 5656 5646 5638 5630 5622 5612
5658 5666 5675 5688 5686 5695 5708 5724 5739 5745 5751 5755 5758 5759 5760 5761 5760 5758 5758 5757 5755 5752 5747 5743 5738 5733 5727 5722 5716 5711 5705 5698 5690 5682 5673 5664 5655 5647 5640 5634 5625 5618 5611
5652 5660 5665 5673 5687 5697 5712 5722 5733 5741 5747 5750 5752 5754 5754 5755 5752 5750 5752 5749 5747 5745 5740 5735 5730 5725 5720 5715 5710 5704 5698 5690 5681 5673 5664 5656 5649 5641 5634 5626 5618 5611 5603
5645 5651 5659 5672 5685 5695 5708 5721 5730 5737 5742 5745 5748 5749 5750 5749 5744 5744 5744 5742 5739 5736 5732 5727 5722 5718 5714 5709 5703 5696 5689 5681 5673 5665 5657 5649 5642 5635 5628 5621 5613 5604 5598
5643 5655 5664 5676 5686 5698 5709 5720 5728 5734 5738 5741 5744 5743 5742 5738 5737 5738 5739 5736 5733 5730 5725 5721 5717 5713 5708 5702 5695 5688 5680 5672 5664 5656 5649 5644 5637 5631 5624 5617 5608 5599 5590
5645 5658 5669 5679 5688 5697 5707 5718 5727 5731 5734 5735 5734 5733 5732 5734 5735 5734 5732 5730 5726 5722 5718 5715 5712 5707 5701 5694 5686 5678 5670 5663 5657 5651 5645 5639 5632 5625 5618 5611 5604 5596 5589
5656 5664 5673 5683 5693 5703 5711 5717 5721 5724 5726 5726 5728 5729 5732 5733 5729 5727 5725 5723 5719 5717 5714 5710 5705 5699 5692 5684 5677 5670 5664 5658 5652 5646 5640 5633 5626 5620 5614 5608 5603 5597 5590
5661 5670 5678 5687 5694 5701 5705 5709 5714 5718 5723 5725 5727 5729 5728 5725 5723 5721 5720 5718 5715 5712 5708 5703 5697 5690 5682 5676 5669 5664 5657 5651 5646 5640 5634 5628 5623 5616 5610 5605 5599 5593 5586
5669 5677 5683 5690 5694 5699 5706 5712 5717 5721 5723 5724 5724 5722 5721 5719 5718 5717 5716 5714 5711 5706 5701 5695 5688 5681 5675 5669 5664 5658 5652 5647 5641 5636 5630 5624 5619 5614 5608 5602 5595 5589 5584
5672 5679 5684 5690 5697 5703 5707 5711 5713 5716 5716 5716 5717 5716 5716 5716 5715 5715 5712 5709 5705 5699 5692 5686 5679 5674 5669 5664 5658 5652 5648 5642 5637 5631 5626 5621 5616 5610 5605 5600 5594 5588 5582
5672 5679 5685 5690 5694 5698 5702 5706 5709 5710 5713 5713 5714 5714 5714 5714 5713 5711 5707 5702 5696 5690 5684 5677 5672 5668 5662 5657 5652 5647 5642 5637 5632 5628 5623 5618 5613 5608 5603 5597 5593 5588 5581
5675 5680 5685 5689 5694 5697 5701 5706 5708 5708 5710 5712 5712 5713 5713 5711 5709 5704 5699 5693 5687 5681 5676 5670 5665 5661 5657 5653 5648 5642 5637 5633 5628 5624 5619 5614 5610 5605 5600 5595 5590 5585 5580
5679 5683 5688 5692 5696 5699 5702 5703 5705 5708 5710 5711 5711 5711 5708 5705 5701 5696 5688 5683 5678 5673 5667 5663 5659 5655 5651 5647 5642 5638 5633 5629 5624 5620 5615 5610 5606 5602 5597 5592 5588 5584 5580
5680 5686 5689 5693 5695 5699 5702 5703 5706 5709 5709 5708 5707 5704 5700 5696 5693 5685 5680 5676 5670 5665 5660 5656 5653 5649 5646 5642 5638 5634 5630 5625 5621 5616 5611 5607 5603 5598 5594 5589 5585 5581 5577
5680 5684 5688 5692 5695 5698 5701 5704 5706 5706 5705 5703 5700 5695 5692 5688 5682 5679 5674 5668 5663 5659 5655 5651 5648 5644 5641 5637 5634 5630 5626 5621 5617 5612 5608 5603 5598 5594 5590 5586 5582 5578 5575
5680 5684 5688 5692 5695 5698 5700 5701 5701 5699 5697 5694 5691 5688 5685 5681 5676 5671 5666 5662 5658 5654 5651 5647 5644 5641 5637 5634 5630 5627 5622 5617 5614 5609 5604 5599 5594 5589 5585 5581 5577 5575 5571
5683 5686 5689 5692 5695 5696 5696 5696 5695 5692 5690 5687 5685 5682 5678 5673 5669 5665 5662 5659 5655 5651 5647 5644 5639 5638 5634 5631 5626 5622 5618 5613 5609 5605 5600 5595 5589 5584 5579 5575 5571 5569 5567
5683 5687 5689 5691 5691 5691 5690 5690 5688 5685 5683 5681 5678 5675 5671 5666 5663 5661 5658 5655 5651 5648 5645 5641 5637 5634 5630 5626 5622 5617 5613 5609 5605 5600 5594 5589 5584 5578 5573 5569 5565 5563 5561
5683 5686 5687 5687 5686 5685 5685 5684 5682 5680 5678 5674 5671 5667 5663 5662 5660 5657 5654 5651 5647 5644 5641 5638 5633 5630 5625 5621 5617 5612 5608 5604 5599 5594 5589 5583 5578 5573 5567 5563 5559 5556 5554